Tillbaka till svenska Fidonet
English   Information   Debug  
FILM   0/18
FNEWS_PUBLISH   4482
FN_SYSOP   41747
FN_SYSOP_OLD1   71952
FTP_FIDO   0/2
FTSC_PUBLIC   0/13637
FUNNY   0/4886
GENEALOGY.EUR   0/71
GET_INFO   105
GOLDED   0/408
HAM   4947/16100
HOLYSMOKE   0/6791
HOT_SITES   0/1
HTMLEDIT   0/71
HUB203   466
HUB_100   264
HUB_400   39
HUMOR   0/29
IC   1898/2851
INTERNET   0/424
INTERUSER   0/3
IP_CONNECT   719
JAMNNTPD   0/233
JAMTLAND   0/47
KATTY_KORNER   0/41
LAN   0/16
LINUX-USER   0/19
LINUXHELP   0/1155
LINUX   0/22125
LINUX_BBS   0/957
mail   18.68
mail_fore_ok   249
MENSA   0/341
MODERATOR   0/102
MONTE   0/992
MOSCOW_OKLAHOMA   0/1245
MUFFIN   0/783
MUSIC   0/321
N203_STAT   936
N203_SYSCHAT   313
NET203   321
NET204   69
NET_DEV   0/10
NORD.ADMIN   0/101
NORD.CHAT   0/2572
NORD.FIDONET   189
NORD.HARDWARE   0/28
NORD.KULTUR   0/114
NORD.PROG   0/32
NORD.SOFTWARE   0/88
NORD.TEKNIK   0/58
NORD   0/453
OCCULT_CHAT   0/93
OS2BBS   0/787
OS2DOSBBS   0/580
OS2HW   0/42
OS2INET   0/37
OS2LAN   0/134
OS2PROG   0/36
OS2REXX   0/113
OS2USER-L   207
OS2   0/4804
OSDEBATE   0/18996
PASCAL   0/490
PERL   0/457
PHP   0/45
POINTS   0/405
POLITICS   0/29554
POL_INC   0/14731
PSION   103
R20_ADMIN   1124
R20_AMATORRADIO   0/2
R20_BEST_OF_FIDONET   13
R20_CHAT   0/893
R20_DEPP   0/3
R20_DEV   399
R20_ECHO2   1399
R20_ECHOPRES   0/35
R20_ESTAT   0/719
R20_FIDONETPROG...
...RAM.MYPOINT
  0/2
R20_FIDONETPROGRAM   0/22
R20_FIDONET   0/248
R20_FILEFIND   0/24
R20_FILEFOUND   0/22
R20_HIFI   0/3
R20_INFO2   3289
R20_INTERNET   0/12940
R20_INTRESSE   0/60
R20_INTR_KOM   0/99
R20_KANDIDAT.CHAT   42
R20_KANDIDAT   28
R20_KOM_DEV   112
R20_KONTROLL   0/13340
R20_KORSET   0/18
R20_LOKALTRAFIK   0/24
R20_MODERATOR   0/1852
R20_NC   76
R20_NET200   245
R20_NETWORK.OTH...
...ERNETS
  0/13
R20_OPERATIVSYS...
...TEM.LINUX
  0/44
R20_PROGRAMVAROR   0/1
R20_REC2NEC   534
R20_SFOSM   0/341
R20_SF   0/108
R20_SPRAK.ENGLISH   0/1
R20_SQUISH   107
R20_TEST   2
R20_WORST_OF_FIDONET   12
RAR   0/9
RA_MULTI   106
RA_UTIL   0/162
REGCON.EUR   0/2056
REGCON   0/13
SCIENCE   0/1206
SF   0/239
SHAREWARE_SUPPORT   0/5146
SHAREWRE   0/14
SIMPSONS   0/169
STATS_OLD1   0/2539.065
STATS_OLD2   0/2530
STATS_OLD3   0/2395.095
STATS_OLD4   0/1692.25
SURVIVOR   0/495
SYSOPS_CORNER   0/3
SYSOP   0/84
TAGLINES   0/112
TEAMOS2   0/4530
TECH   0/2617
TEST.444   0/105
TRAPDOOR   0/19
TREK   0/755
TUB   0/290
UFO   0/40
UNIX   0/1316
USA_EURLINK   0/102
USR_MODEMS   0/1
VATICAN   0/2740
VIETNAM_VETS   0/14
VIRUS   0/378
VIRUS_INFO   0/201
VISUAL_BASIC   0/473
WHITEHOUSE   0/5187
WIN2000   0/101
WIN32   0/30
WIN95   0/4291
WIN95_OLD1   0/70272
WINDOWS   0/1517
WWB_SYSOP   0/419
WWB_TECH   0/810
ZCC-PUBLIC   0/1
ZEC   4

 
4DOS   0/134
ABORTION   0/7
ALASKA_CHAT   0/506
ALLFIX_FILE   0/1313
ALLFIX_FILE_OLD1   0/7997
ALT_DOS   0/152
AMATEUR_RADIO   0/1039
AMIGASALE   0/14
AMIGA   0/331
AMIGA_INT   0/1
AMIGA_PROG   0/20
AMIGA_SYSOP   0/26
ANIME   0/15
ARGUS   0/924
ASCII_ART   0/340
ASIAN_LINK   0/651
ASTRONOMY   0/417
AUDIO   0/92
AUTOMOBILE_RACING   0/105
BABYLON5   0/17862
BAG   135
BATPOWER   0/361
BBBS.ENGLISH   0/382
BBSLAW   0/109
BBS_ADS   0/5290
BBS_INTERNET   0/507
BIBLE   0/3563
BINKD   0/1119
BINKLEY   0/215
BLUEWAVE   0/2173
CABLE_MODEMS   0/25
CBM   0/46
CDRECORD   0/66
CDROM   0/20
CLASSIC_COMPUTER   0/378
COMICS   0/15
CONSPRCY   0/899
COOKING   34293
COOKING_OLD1   0/24719
COOKING_OLD2   0/40862
COOKING_OLD3   0/37489
COOKING_OLD4   0/35496
COOKING_OLD5   9370
C_ECHO   0/189
C_PLUSPLUS   0/31
DIRTY_DOZEN   0/201
DOORGAMES   0/2069
DOS_INTERNET   0/196
duplikat   6002
ECHOLIST   0/18295
EC_SUPPORT   0/318
ELECTRONICS   0/359
ELEKTRONIK.GER   1534
ENET.LINGUISTIC   0/13
ENET.POLITICS   0/4
ENET.SOFT   0/11701
ENET.SYSOP   33971
ENET.TALKS   0/32
ENGLISH_TUTOR   0/2000
EVOLUTION   0/1335
FDECHO   0/217
FDN_ANNOUNCE   0/7068
FIDONEWS   24213
FIDONEWS_OLD1   0/49742
FIDONEWS_OLD2   0/35949
FIDONEWS_OLD3   0/30874
FIDONEWS_OLD4   0/37224
FIDO_SYSOP   12853
FIDO_UTIL   0/180
FILEFIND   0/209
FILEGATE   0/212
Möte HAM, 16100 texter
 lista första sista föregående nästa
Text 1015, 764 rader
Skriven 2006-05-18 00:01:30 av Amsat List (1:323/120.0)
Ärende: 
========
SB KEPS @ AMSAT  $ORB06137.O
Orbital Elements  06137.OSCAR

HR AMSAT ORBITAL ELEMENTS FOR OSCAR SATELLITES
FROM WA5QGD FORT WORTH,TX May 17, 2006
Send SUBSCRIBE KEPS/UNSUBSCRIBE KEPS to majordomo@amsat.org only
BID: ORB06137.O
TO ALL RADIO AMATEURS BT

Satellite: AO-07
Catalog number: 07530
Epoch time:      06136.74279417
Element set:     580
Inclination:      101.5721 deg
RA of node:       180.4546 deg
Eccentricity:    0.0011978
Arg of perigee:   308.7275 deg
Mean anomaly:     051.2726 deg
Mean motion:   12.53571941 rev/day
Decay rate:       -2.8e-07 rev/day^2
Epoch rev:           44144
Checksum:              295

Satellite: AO-10
Catalog number: 14129
Epoch time:      06137.20308327
Element set:     282
Inclination:      027.4289 deg
RA of node:       334.7087 deg
Eccentricity:    0.6031749
Arg of perigee:   285.6867 deg
Mean anomaly:     018.3438 deg
Mean motion:   02.05868171 rev/day
Decay rate:      -1.93e-06 rev/day^2
Epoch rev:           17241
Checksum:              312

Satellite: UO-11
Catalog number: 14781
Epoch time:      06137.61328649
Element set:      70
Inclination:      098.2067 deg
RA of node:       147.1826 deg
Eccentricity:    0.0009698
Arg of perigee:   010.4414 deg
Mean anomaly:     349.6976 deg
Mean motion:   14.79423372 rev/day
Decay rate:       3.31e-06 rev/day^2
Epoch rev:           19124
Checksum:              313

Satellite: RS-10/11
Catalog number: 18129
Epoch time:      06136.69811444
Element set:    0993
Inclination:      082.9262 deg
RA of node:       351.4578 deg
Eccentricity:    0.0011192
Arg of perigee:   173.0753 deg
Mean anomaly:     187.0558 deg
Mean motion:   13.72774431 rev/day
Decay rate:        3.8e-07 rev/day^2
Epoch rev:           94683
Checksum:              325

Satellite: RS-15
Catalog number: 23439
Epoch time:      06137.86085375
Element set:     947
Inclination:      064.8179 deg
RA of node:       286.2718 deg
Eccentricity:    0.0167656
Arg of perigee:   259.1380 deg
Mean anomaly:     099.0637 deg
Mean motion:   11.27551466 rev/day
Decay rate:       -3.9e-07 rev/day^2
Epoch rev:           46912
Checksum:              352

Satellite: FO-29
Catalog number: 24278
Epoch time:      06137.62819247
Element set:     231
Inclination:      098.5120 deg
RA of node:       146.3831 deg
Eccentricity:    0.0351479
Arg of perigee:   029.1237 deg
Mean anomaly:     332.9011 deg
Mean motion:   13.52921509 rev/day
Decay rate:       -4.0e-08 rev/day^2
Epoch rev:           48141
Checksum:              291

Satellite: SO-33
Catalog number: 25509
Epoch time:      06136.77761031
Element set:    0654
Inclination:      031.4326 deg
RA of node:       306.8601 deg
Eccentricity:    0.0354984
Arg of perigee:   201.9650 deg
Mean anomaly:     156.5457 deg
Mean motion:   14.28103408 rev/day
Decay rate:       3.45e-06 rev/day^2
Epoch rev:           39454
Checksum:              300

Satellite: AO-40
Catalog number: 26609
Epoch time:      06137.38217251
Element set:     723
Inclination:      006.8432 deg
RA of node:       241.2018 deg
Eccentricity:    0.7943222
Arg of perigee:   161.1687 deg
Mean anomaly:     268.4082 deg
Mean motion:   01.25586680 rev/day
Decay rate:      -2.32e-06 rev/day^2
Epoch rev:            2546
Checksum:              291

Satellite: VO-52
Catalog number: 28650
Epoch time:      06137.24762312
Element set:     326
Inclination:      097.8713 deg
RA of node:       210.8300 deg
Eccentricity:    0.0028470
Arg of perigee:   101.4460 deg
Mean anomaly:     258.9950 deg
Mean motion:   14.81113796 rev/day
Decay rate:       5.21e-06 rev/day^2
Epoch rev:            5580
Checksum:              284

/EX
SB KEPS @ AMSAT  $ORB06137.D
Orbital Elements  06137.MICROS

HR AMSAT ORBITAL ELEMENTS FOR THE MICROSATS
FROM WA5QGD FORT WORTH,TX May 17, 2006
Send SUBSCRIBE KEPS/UNSUBSCRIBE KEPS to majordomo@amsat.org only
BID: ORB06137.D
TO ALL RADIO AMATEURS BT

Satellite: AO-16
Catalog number: 20439
Epoch time:      06136.63072478
Element set:     747
Inclination:      098.1874 deg
RA of node:       148.3484 deg
Eccentricity:    0.0010146
Arg of perigee:   292.6789 deg
Mean anomaly:     067.3310 deg
Mean motion:   14.31721167 rev/day
Decay rate:        2.9e-07 rev/day^2
Epoch rev:           85180
Checksum:              317

Satellite: WO-18
Catalog number: 20441
Epoch time:      06136.61867827
Element set:     946
Inclination:      098.1918 deg
RA of node:       152.9496 deg
Eccentricity:    0.0011244
Arg of perigee:   294.6850 deg
Mean anomaly:     065.3166 deg
Mean motion:   14.31791531 rev/day
Decay rate:        2.2e-07 rev/day^2
Epoch rev:           85186
Checksum:              323

Satellite: LO-19
Catalog number: 20442
Epoch time:      06136.66622197
Element set:     684
Inclination:      098.1895 deg
RA of node:       157.8295 deg
Eccentricity:    0.0011111
Arg of perigee:   290.7753 deg
Mean anomaly:     069.2243 deg
Mean motion:   14.31964312 rev/day
Decay rate:       -1.0e-08 rev/day^2
Epoch rev:           85194
Checksum:              311

Satellite: UO-22
Catalog number: 21575
Epoch time:      06136.77188046
Element set:    0702
Inclination:      098.2942 deg
RA of node:       095.4671 deg
Eccentricity:    0.0007554
Arg of perigee:   157.7586 deg
Mean anomaly:     202.3916 deg
Mean motion:   14.39548076 rev/day
Decay rate:        3.2e-07 rev/day^2
Epoch rev:           77849
Checksum:              337

Satellite: KO-23
Catalog number: 22077
Epoch time:      06136.57735401
Element set:    0793
Inclination:      066.0840 deg
RA of node:       168.2475 deg
Eccentricity:    0.0001067
Arg of perigee:   157.2162 deg
Mean anomaly:     202.8908 deg
Mean motion:   12.86436512 rev/day
Decay rate:       -3.7e-07 rev/day^2
Epoch rev:           64647
Checksum:              301

